EW9318 Weather Reports


time (UTC)temp
C
wind
direction
speed
KPH
gust
KPH
rain 1hr
cm
rain 24hr
cm
rain mn
cm
humidity
%
barometer
mb
20260502220515 8 313 19.3 25.7 0.00 0.00 0.00 31 1015.1
20260502220036 8 310 12.9 24.1 0.00 0.00 0.00 31 1015.2
20260502215517 8 306 12.9 29.0 0.00 0.00 0.00 31 1015.2
20260502215015 9 345 17.7 29.0 0.00 0.00 0.00 33 1015.3
20260502214516 8 314 16.1 25.7 0.00 0.00 0.00 32 1015.3
20260502214016 8 309 11.3 24.1 0.00 0.00 0.00 32 1015.3
20260502213516 9 326 14.5 24.1 0.00 0.00 0.00 33 1015.3
20260502213015 8 326 12.9 27.4 0.00 0.00 0.00 33 1015.4
20260502212517 8 328 16.1 27.4 0.00 0.00 0.00 34 1015.3
20260502212015 8 295 8.0 25.7 0.00 0.00 0.00 38 1015.3
20260502211515 8 287 14.5 27.4 0.00 0.00 0.00 35 1015.5
20260502211017 8 309 14.5 27.4 0.00 0.00 0.00 36 1015.5
20260502210516 8 315 17.7 29.0 0.00 0.00 0.00 36 1015.5
20260502210015 8 300 16.1 30.6 0.00 0.00 0.00 37 1015.6
20260502205515 8 318 17.7 30.6 0.00 0.00 0.00 35 1015.6
20260502205016 8 318 14.5 24.1 0.00 0.00 0.00 36 1015.5
20260502204516 8 304 16.1 25.7 0.00 0.00 0.00 36 1015.6
20260502204015 8 327 16.1 27.4 0.00 0.00 0.00 37 1015.6
20260502203515 8 283 14.5 29.0 0.00 0.00 0.00 39 1015.7
20260502203015 8 296 16.1 29.0 0.00 0.00 0.00 37 1015.8
20260502202516 8 301 11.3 22.5 0.00 0.00 0.00 41 1015.7
20260502202015 8 304 12.9 24.1 0.00 0.00 0.00 41 1015.9
20260502201515 8 276 14.5 27.4 0.00 0.00 0.00 41 1015.9
20260502201015 8 320 17.7 32.2 0.00 0.00 0.00 36 1016.0
20260502200515 8 324 17.7 35.4 0.00 0.00 0.00 38 1016.1
20260502200015 8 266 17.7 35.4 0.00 0.00 0.00 40 1016.1
20260502195516 8 337 14.5 27.4 0.00 0.00 0.00 40 1016.2
20260502195016 8 281 17.7 35.4 0.00 0.00 0.00 40 1016.2
20260502194515 8 282 17.7 35.4 0.00 0.00 0.00 39 1016.4
20260502194035 8 298 16.1 27.4 0.00 0.00 0.00 38 1016.4
20260502193517 8 293 16.1 25.7 0.00 0.00 0.00 39 1016.5
20260502193016 8 298 17.7 25.7 0.00 0.00 0.00 39 1016.5
20260502192515 8 320 12.9 25.7 0.00 0.00 0.00 40 1016.6
20260502192015 8 301 16.1 25.7 0.00 0.00 0.00 41 1016.5
20260502191515 8 283 12.9 32.2 0.00 0.00 0.00 40 1016.6
20260502191015 8 284 16.1 33.8 0.00 0.00 0.00 40 1016.6
20260502190515 8 270 20.9 33.8 0.00 0.00 0.00 41 1016.6
20260502190015 7 314 19.3 29.0 0.00 0.00 0.00 43 1016.8
20260502185515 8 298 19.3 33.8 0.00 0.00 0.00 42 1016.7
20260502185015 8 266 22.5 33.8 0.00 0.00 0.00 45 1016.7
20260502184535 8 261 17.7 29.0 0.00 0.00 0.00 45 1016.8
20260502184015 7 277 14.5 29.0 0.00 0.00 0.00 42 1016.8
20260502183515 7 265 17.7 29.0 0.00 0.00 0.00 45 1016.8
20260502182516 7 290 22.5 33.8 0.00 0.00 0.00 46 1016.9
20260502182016 7 295 20.9 32.2 0.00 0.00 0.00 44 1016.9
20260502181535 7 300 19.3 29.0 0.00 0.00 0.00 45 1016.9
20260502181016 7 311 12.9 24.1 0.00 0.00 0.00 45 1016.9
20260502180515 7 276 12.9 25.7 0.00 0.00 0.00 46 1016.9
20260502170516 7 326 11.3 20.9 0.00 0.00 0.00 45 1017.2
20260502164017 6 307 16.1 22.5 0.00 0.00 0.00 45 1017.3
20260502163517 6 291 9.7 22.5 0.00 0.00 0.00 47 1017.3
20260502163017 6 303 14.5 24.1 0.00 0.00 0.00 47 1017.4
20260502162518 6 316 12.9 24.1 0.00 0.00 0.00 46 1017.4
20260502162038 6 322 12.9 22.5 0.00 0.00 0.00 46 1017.5
20260502161519 6 322 8.0 24.1 0.00 0.00 0.00 50 1017.5
20260502161017 6 309 14.5 24.1 0.00 0.00 0.00 49 1017.7
20260502160516 6 336 9.7 16.1 0.00 0.00 0.00 49 1017.5
20260502152017 5 285 11.3 20.9 0.00 0.00 0.00 50 1017.5
20260502151517 5 298 14.5 20.9 0.00 0.00 0.00 50 1017.6
20260502151117 5 282 12.9 19.3 0.00 0.00 0.00 52 1017.6
20260502150517 6 346 9.7 19.3 0.00 0.00 0.00 53 1017.6
20260502130516 3 3 11.3 19.3 0.00 0.00 0.00 73 1017.8
20260502123518 3 27 1.6 6.4 0.00 0.00 0.00 77 1017.8
20260502123018 3 27 3.2 6.4 0.00 0.00 0.00 78 1017.7
20260502122516 3 10 1.6 6.4 0.00 0.00 0.00 79 1017.7
20260502122037 2 22 0.0 8.0 0.00 0.00 0.00 79 1017.8
20260502121516 2 9 3.2 8.0 0.00 0.00 0.00 80 1017.7
20260502121016 2 5 3.2 8.0 0.00 0.00 0.00 82 1017.6
20260502120516 2 10 3.2 6.4 0.00 0.00 0.00 83 1017.6
20260502115516 1 0.0 0.0 0.00 0.00 0.00 87 1017.5
20260502115038 1 0.0 0.0 0.00 0.00 0.00 87 1017.4
20260502114518 0 0.0 0.0 0.00 0.00 0.00 87 1017.5
20260502114016 0 0.0 0.0 0.00 0.00 0.00 86 1017.4
20260502113518 0 0.0 0.0 0.00 0.00 0.00 87 1017.4
20260502113016 0 0.0 0.0 0.00 0.00 0.00 86 1017.4
20260502112538 0 0.0 0.0 0.00 0.00 0.00 87 1017.3
20260502112016 0 0.0 0.0 0.00 0.00 0.00 86 1017.3
20260502111516 0 0.0 0.0 0.00 0.00 0.00 86 1017.3
20260502111036 0 0.0 0.0 0.00 0.00 0.00 85 1017.3
20260502110536 -1 0.0 0.0 0.00 0.00 0.00 85 1017.3
20260502110016 -1 0.0 0.0 0.00 0.00 0.00 85 1017.2
20260502105516 0 0.0 0.0 0.00 0.00 0.00 84 1017.2
20260502105016 0 0.0 0.0 0.00 0.00 0.00 84 1017.4
20260502104556 0 0.0 0.0 0.00 0.00 0.00 83 1017.3
20260502104017 0 0.0 0.0 0.00 0.00 0.00 82 1017.3
20260502103516 0 0.0 0.0 0.00 0.00 0.00 81 1017.3
20260502103016 0 0.0 0.0 0.00 0.00 0.00 81 1017.2
20260502102516 0 0.0 0.0 0.00 0.00 0.00 80 1017.2
20260502102016 0 0.0 0.0 0.00 0.00 0.00 80 1017.1
20260502101516 0 0.0 0.0 0.00 0.00 0.00 80 1017.2
20260502101016 0 0.0 0.0 0.00 0.00 0.00 80 1017.2
20260502100516 0 0.0 0.0 0.00 0.00 0.00 80 1017.2
20260502091516 1 0.0 0.0 0.00 0.00 0.00 76 1017.1
20260502091016 1 0.0 0.0 0.00 0.00 0.00 76 1017.0
20260502090516 1 0.0 0.0 0.00 0.00 0.00 76 1017.0
20260502071516 1 292 3.2 6.4 0.00 0.00 0.00 77 1016.7
20260502071016 1 292 1.6 4.8 0.00 0.00 0.00 77 1016.7
20260502070516 1 301 1.6 4.8 0.00 0.00 0.00 77 1016.6
20260502070016 1 287 1.6 6.4 0.00 0.00 0.00 77 1016.7
20260502065516 1 279 3.2 6.4 0.00 0.00 0.00 77 1016.7
20260502065016 1 288 1.6 6.4 0.00 0.00 0.00 78 1016.8
20260502064515 1 291 3.2 6.4 0.00 0.00 0.00 78 1016.9
20260502064016 1 285 3.2 6.4 0.00 0.00 0.00 80 1016.8
20260502063536 1 0.0 0.0 0.00 0.00 0.00 80 1016.8
20260502063016 1 0.0 0.0 0.00 0.00 0.00 80 1016.8
20260502062516 1 0.0 0.0 0.00 0.00 0.00 80 1016.8
20260502062015 1 0.0 0.0 0.00 0.00 0.00 79 1016.8
20260502061515 1 0.0 0.0 0.00 0.00 0.00 79 1016.9
20260502061016 1 0.0 0.0 0.00 0.00 0.00 78 1017.0
20260502060515 1 0.0 0.0 0.00 0.00 0.00 77 1016.9
20260502060015 1 0.0 0.0 0.00 0.00 0.00 77 1017.0
20260502055515 1 0.0 0.0 0.00 0.00 0.00 77 1017.0
20260502055017 1 0.0 0.0 0.00 0.00 0.00 77 1016.9
20260502054515 1 0.0 0.0 0.00 0.00 0.00 75 1017.0
20260502054015 1 0.0 0.0 0.00 0.00 0.00 75 1017.1
20260502053537 1 0.0 0.0 0.00 0.00 0.00 74 1017.1
20260502053017 1 0.0 0.0 0.00 0.00 0.00 73 1017.0
20260502052516 1 0.0 0.0 0.00 0.00 0.00 72 1016.9
20260502052015 1 0.0 1.6 0.00 0.00 0.00 72 1017.0
20260502051515 1 282 0.0 3.2 0.00 0.00 0.00 71 1017.0
20260502051016 1 282 1.6 3.2 0.00 0.00 0.00 70 1017.0
20260502050516 1 282 0.0 3.2 0.00 0.00 0.00 70 1017.0
20260502050016 1 282 0.0 1.6 0.00 0.00 0.00 69 1016.9
20260502045537 1 282 0.0 3.2 0.00 0.00 0.00 69 1016.9
20260502045016 2 282 1.6 3.2 0.00 0.00 0.00 69 1016.9
20260502044517 2 292 1.6 3.2 0.00 0.00 0.00 68 1016.9
20260502044016 2 305 0.0 3.2 0.00 0.00 0.00 68 1016.8
20260502043515 2 305 0.0 3.2 0.00 0.00 0.00 68 1016.8
20260502043015 2 306 0.0 3.2 0.00 0.00 0.00 68 1016.7
20260502042536 2 305 1.6 4.8 0.00 0.00 0.00 68 1016.7
20260502042015 2 294 1.6 4.8 0.00 0.00 0.00 67 1016.8
20260502041517 2 289 1.6 4.8 0.00 0.00 0.00 67 1016.8
20260502041015 2 288 1.6 4.8 0.00 0.00 0.00 67 1016.8
20260502040515 2 288 3.2 6.4 0.00 0.00 0.00 67 1016.7
20260502040015 2 278 3.2 6.4 0.00 0.00 0.00 66 1016.7
20260502035516 2 287 3.2 8.0 0.00 0.00 0.00 65 1016.7
20260502035016 2 300 3.2 8.0 0.00 0.00 0.00 65 1016.7
20260502034516 2 291 3.2 4.8 0.00 0.00 0.00 65 1016.7
20260502034017 2 300 1.6 3.2 0.00 0.00 0.00 64 1016.8
20260502033516 2 301 1.6 6.4 0.00 0.00 0.00 63 1016.8
20260502033016 2 303 3.2 6.4 0.00 0.00 0.00 63 1016.7
20260502032517 2 312 3.2 9.7 0.00 0.00 0.00 62 1016.7
20260502032056 2 306 4.8 9.7 0.00 0.00 0.00 62 1016.6
20260502031516 2 325 4.8 8.0 0.00 0.00 0.00 61 1016.6
20260502031016 2 324 4.8 9.7 0.00 0.00 0.00 61 1016.5
20260502030536 2 320 4.8 9.7 0.00 0.00 0.00 61 1016.4
20260502030016 2 314 3.2 8.0 0.00 0.00 0.00 60 1016.4
20260502025516 2 319 4.8 9.7 0.00 0.00 0.00 60 1016.4
20260502025037 2 325 4.8 11.3 0.00 0.00 0.00 60 1016.5
20260502024516 2 318 6.4 14.5 0.00 0.00 0.00 61 1016.4
20260502024016 2 328 6.4 14.5 0.00 0.00 0.00 61 1016.3
20260502023515 2 324 8.0 14.5 0.00 0.00 0.00 62 1016.3
20260502023036 2 318 6.4 11.3 0.00 0.00 0.00 64 1016.2
20260502022516 2 315 6.4 12.9 0.00 0.00 0.00 66 1016.2
20260502022016 3 301 6.4 12.9 0.00 0.00 0.00 66 1016.2
20260502021515 3 296 6.4 11.3 0.00 0.00 0.00 67 1016.3
20260502021016 3 283 6.4 12.9 0.00 0.00 0.00 67 1016.2
20260502020516 3 279 8.0 14.5 0.00 0.00 0.00 67 1016.1
20260502020016 3 282 8.0 14.5 0.00 0.00 0.00 67 1015.9
20260502015516 3 286 8.0 12.9 0.00 0.00 0.00 67 1015.9
20260502015056 3 291 8.0 12.9 0.00 0.00 0.00 66 1015.8
20260502014516 3 306 6.4 16.1 0.00 0.00 0.00 67 1015.8
20260502014016 3 308 9.7 16.1 0.00 0.00 0.00 66 1015.8
20260502013515 3 304 6.4 17.7 0.00 0.00 0.00 66 1015.7
20260502013036 3 304 11.3 20.9 0.00 0.00 0.00 66 1015.7
20260502012517 3 301 11.3 20.9 0.00 0.00 0.00 66 1015.7
20260502012037 3 297 9.7 17.7 0.00 0.00 0.00 65 1015.7
20260502011536 3 283 9.7 17.7 0.00 0.00 0.00 64 1015.5
20260502011015 3 302 8.0 14.5 0.00 0.00 0.00 64 1015.5
20260502010516 3 293 8.0 16.1 0.00 0.00 0.00 62 1015.5
20260502010017 3 299 8.0 17.7 0.00 0.00 0.00 61 1015.4
20260502005515 3 289 9.7 17.7 0.00 0.00 0.00 60 1015.4
20260502005015 3 283 6.4 14.5 0.00 0.00 0.00 58 1015.3
20260502004516 3 298 8.0 14.5 0.00 0.00 0.00 56 1015.3
20260502004015 3 301 8.0 14.5 0.00 0.00 0.00 55 1015.3
20260502003535 3 309 6.4 14.5 0.00 0.00 0.00 55 1015.4
20260502003016 3 300 8.0 20.9 0.00 0.00 0.00 54 1015.3
20260502002515 3 311 12.9 20.9 0.00 0.00 0.00 53 1015.4
20260502002016 3 305 11.3 19.3 0.00 0.00 0.00 52 1015.4
20260502001517 3 303 11.3 22.5 0.00 0.00 0.00 51 1015.4
20260502001037 3 297 16.1 22.5 0.00 0.00 0.00 50 1015.3
20260502000536 3 300 12.9 20.9 0.00 0.00 0.00 50 1015.3
20260502000015 4 299 11.3 29.0 0.00 0.00 0.00 49 1015.2
20260501235515 4 300 19.3 29.0 0.00 0.00 0.00 47 1015.2
20260501235015 4 318 12.9 27.4 0.00 0.00 0.00 47 1015.2
20260501234535 4 316 12.9 25.7 0.00 0.00 0.00 47 1015.2
20260501234017 5 312 14.5 25.7 0.00 0.00 0.00 47 1015.2
20260501233535 5 317 17.7 27.4 0.00 0.00 0.00 47 1015.1
20260501233036 5 314 16.1 33.8 0.00 0.00 0.00 46 1015.1
20260501232517 5 315 20.9 33.8 0.00 0.00 0.00 46 1015.1
20260501232015 6 293 17.7 27.4 0.00 0.00 0.00 46 1015.0
20260501231515 6 301 16.1 25.7 0.00 0.00 0.00 45 1014.9
20260501231015 6 314 19.3 29.0 0.00 0.00 0.00 44 1015.0
20260501230538 6 304 17.7 29.0 0.00 0.00 0.00 43 1014.9
20260501230016 6 323 12.9 25.7 0.00 0.00 0.00 43 1014.9
20260501225535 6 312 14.5 25.7 0.00 0.00 0.00 43 1014.8
20260501225016 6 297 14.5 27.4 0.00 0.00 0.00 43 1014.8
20260501224515 6 312 17.7 27.4 0.00 0.00 0.00 42 1014.8
20260501224016 6 302 16.1 24.1 0.00 0.00 0.00 43 1014.8
20260501223535 6 308 14.5 30.6 0.00 0.00 0.00 43 1014.8
20260501223035 7 317 17.7 30.6 0.00 0.00 0.00 45 1014.8
20260501222515 7 326 14.5 27.4 0.00 0.00 0.00 44 1014.8
20260501222036 7 330 17.7 27.4 0.00 0.00 0.00 44 1014.7
20260501221515 7 319 17.7 25.7 0.00 0.00 0.00 44 1014.7
20260501221016 7 313 14.5 30.6 0.00 0.00 0.00 46 1014.7
20260501220555 6 332 17.7 33.8 0.00 0.00 0.00 46 1014.7